Theta_e
315 314 314 316 317 318 318 318 320 320 321 322 323 323 323 325 328 330 330 327 325 326 329 331 332 333 334 335 334 334 334 329 322 321 321 325 330 329 330 329 323 320 320 318 316 317 320 320 320 320 324 326 328 329 326 326 326 327 336 330 328 337 332 324 322 321 323 322 324 324 324 327 326 325 323 321 325 327 328 331 331 330 334 337 336 335 334 334
314 315 315 316 317 318 319 320 321 321 321 323 323 323 323 325 327 329 330 328 324 326 329 330 332 333 333 334 333 334 332 325 321 320 322 326 328 326 326 325 322 320 319 317 315 317 322 324 321 323 329 330 330 330 329 329 327 330 333 329 333 338 328 321 319 318 319 320 321 321 322 325 326 325 323 323 324 326 328 329 332 334 334 336 334 334 334 333
314 314 315 317 318 318 320 320 321 321 322 323 324 323 323 325 327 329 330 328 325 325 328 329 332 333 333 334 333 332 326 321 321 321 323 325 322 324 325 322 321 320 318 316 316 317 321 324 321 325 332 332 334 332 332 330 328 334 332 331 339 335 321 317 317 317 316 318 320 319 319 322 323 324 323 324 324 325 328 329 333 334 335 338 335 333 333 333
315 315 315 317 318 319 320 321 321 321 322 323 323 323 323 324 325 327 329 329 326 325 327 328 330 333 333 333 333 328 322 322 324 323 327 326 320 322 322 320 321 319 318 316 315 318 320 321 323 328 331 333 336 334 334 332 332 333 330 335 337 326 319 316 315 316 316 317 319 318 319 319 319 321 323 324 324 325 326 327 333 333 334 338 336 333 333 332
315 315 314 316 317 318 320 321 320 320 321 322 323 322 322 323 324 326 329 329 326 325 327 328 329 331 332 332 331 324 323 331 331 327 330 330 323 320 320 320 320 319 317 316 318 321 322 323 326 329 331 335 336 334 335 331 331 330 328 335 332 321 318 315 314 316 316 316 318 318 318 317 317 318 321 323 324 328 324 322 328 329 331 336 335 333 333 332
314 315 315 316 317 318 319 320 320 319 320 321 322 322 322 323 323 325 328 329 327 326 327 328 329 330 331 332 329 322 326 334 331 329 332 331 328 322 320 320 320 318 316 318 322 322 323 326 328 330 331 334 337 337 337 330 329 332 330 331 328 321 317 314 315 315 315 316 317 317 316 316 317 317 319 320 323 327 323 321 326 326 330 335 334 334 334 333
314 315 316 315 316 317 318 319 319 318 318 319 320 321 323 323 323 323 326 328 328 327 327 328 329 329 330 330 326 322 326 330 326 328 330 330 331 326 321 321 319 317 317 322 326 325 328 330 331 334 332 333 338 339 339 332 329 333 334 331 326 320 316 316 316 315 315 316 315 316 315 316 317 317 318 320 322 324 321 319 323 324 328 335 334 334 334 333
314 315 315 314 316 316 317 319 319 319 318 318 319 320 322 323 323 323 325 328 328 327 327 328 329 329 329 325 322 323 326 328 325 327 329 330 331 328 323 320 319 317 318 324 326 326 330 332 332 334 333 335 340 340 337 332 329 332 335 331 323 318 317 318 317 315 315 315 316 316 316 317 317 317 317 319 322 323 319 317 324 327 328 335 336 334 333 332
314 315 314 314 315 315 316 318 318 320 320 318 318 318 320 320 321 322 323 326 328 328 328 328 329 328 328 324 322 326 327 327 326 326 329 330 330 328 323 320 319 318 321 325 325 325 328 331 334 333 336 338 339 340 335 331 333 334 335 329 320 318 317 318 319 316 315 316 318 317 317 319 317 316 317 318 320 320 320 321 328 331 330 334 336 335 333 332
314 314 314 314 315 315 315 317 318 320 319 318 318 316 317 317 317 318 319 322 326 327 327 328 328 326 325 322 324 328 327 326 326 325 329 329 327 326 322 320 319 318 322 325 324 324 326 330 332 334 338 338 337 340 336 336 337 332 333 328 320 320 316 318 321 317 317 318 319 318 319 321 317 315 317 319 319 317 319 322 325 330 333 332 335 336 332 332
314 314 314 315 316 316 316 317 318 319 319 318 317 316 316 316 316 317 318 320 323 326 327 326 326 324 322 322 325 328 327 325 325 325 328 328 326 323 321 320 318 319 323 325 325 324 327 328 329 332 337 337 337 337 335 338 336 329 329 325 321 324 320 318 321 319 318 320 321 319 320 323 320 316 316 318 321 318 318 323 324 326 330 330 334 336 333 332
313 313 313 314 314 314 315 316 317 318 318 317 317 316 316 317 318 319 320 321 321 325 326 325 325 324 321 322 326 327 326 324 323 326 328 327 326 323 321 320 318 320 323 325 325 325 327 327 329 335 337 336 336 337 337 335 331 330 331 329 328 328 326 322 320 320 319 320 323 321 324 326 321 319 317 316 320 321 320 323 324 324 325 327 331 334 334 332
312 312 313 313 311 311 312 314 316 317 317 317 318 317 316 316 317 318 319 321 320 322 326 326 324 322 321 324 325 325 326 324 324 326 326 325 325 322 321 321 319 321 322 325 324 324 326 326 330 336 336 339 339 335 334 330 329 333 332 334 336 335 334 328 320 322 320 321 324 324 331 335 328 324 321 318 318 319 322 321 322 324 323 324 326 331 333 332
313 313 314 313 312 311 311 313 315 317 317 317 317 316 314 313 315 317 318 320 321 320 324 326 323 322 323 325 325 325 326 323 324 325 323 323 323 323 322 322 322 323 323 324 324 325 327 326 329 333 332 338 339 331 329 330 332 335 332 334 338 339 343 336 323 322 320 321 326 328 332 335 332 330 328 323 319 317 320 321 320 323 324 324 324 327 331 330
313 313 314 314 313 312 311 314 317 318 317 316 316 314 312 311 313 315 316 320 322 320 322 324 323 322 324 326 324 325 325 323 324 323 322 323 323 323 323 323 324 324 324 324 324 326 327 326 332 336 332 331 334 333 332 333 333 333 336 338 338 339 343 340 327 322 321 321 324 329 333 334 332 332 330 324 320 317 319 320 320 321 323 324 324 325 328 330
312 312 314 316 315 314 313 314 316 317 317 317 316 312 311 313 313 314 316 318 321 320 321 323 321 322 326 327 324 324 325 324 324 323 322 322 323 323 322 323 323 324 324 323 324 325 326 332 337 336 333 330 332 336 335 335 334 333 338 340 340 339 337 336 330 323 322 321 321 327 335 338 335 332 332 326 319 319 319 320 320 320 321 323 324 324 326 330
312 312 314 316 316 316 316 315 315 316 317 316 316 314 314 315 314 314 316 319 321 320 321 322 320 322 326 324 323 325 325 324 324 322 322 322 322 322 321 323 324 324 325 324 325 327 330 336 336 333 334 334 332 334 336 337 337 335 337 339 339 338 335 335 334 326 323 322 322 326 331 335 334 332 334 327 319 320 320 319 320 319 320 322 323 324 326 330
312 313 315 315 315 316 316 316 316 316 316 315 315 314 314 316 315 314 316 318 320 320 321 322 321 324 327 322 323 326 324 325 324 322 322 322 322 321 321 324 324 325 327 328 329 331 333 335 334 335 337 336 334 333 337 338 336 336 337 339 337 335 334 335 334 329 324 323 325 327 328 329 329 330 331 327 319 319 320 319 320 320 320 322 323 324 327 329
313 313 314 315 315 315 315 316 316 316 315 315 315 313 312 315 316 315 315 317 318 319 322 323 322 326 326 322 322 325 324 325 324 323 322 322 322 321 322 324 324 325 328 330 331 331 332 333 333 336 337 336 336 334 334 333 333 335 335 336 336 334 334 333 331 328 324 324 326 327 327 327 327 327 327 326 321 318 319 319 319 319 320 321 321 324 326 329
312 312 314 314 314 315 315 315 315 316 315 315 315 314 314 314 314 315 316 316 316 318 320 321 321 322 323 322 322 324 325 325 324 324 322 322 321 322 324 324 325 327 327 329 331 329 329 333 334 335 335 333 333 333 331 330 331 333 332 333 335 335 335 332 328 326 323 324 325 325 327 327 326 326 324 324 322 319 319 319 318 317 318 318 319 322 326 328
311 312 314 314 314 314 314 314 315 315 314 315 314 313 314 314 313 314 314 314 314 315 317 318 317 319 320 321 323 323 324 324 324 324 323 322 322 323 325 325 327 329 327 327 330 327 328 334 333 331 332 330 330 331 330 331 332 331 330 334 336 335 334 329 323 323 322 323 328 328 326 326 325 325 325 325 324 321 319 317 317 317 316 317 317 321 325 326
311 312 314 314 314 314 313 313 315 314 314 313 312 311 311 312 313 313 312 313 313 313 316 317 316 316 317 319 322 323 324 325 325 324 323 322 323 325 326 325 327 328 327 327 329 329 331 334 331 328 329 328 328 329 329 331 332 331 330 333 337 337 334 327 321 322 322 324 333 334 328 327 327 326 328 328 327 325 322 319 319 319 318 317 317 318 321 323
311 312 313 314 313 314 313 313 314 314 312 311 311 311 310 309 313 312 312 315 316 314 314 315 316 316 316 319 321 322 324 325 326 325 323 323 324 325 326 325 326 328 329 329 329 332 333 331 328 327 327 327 328 328 329 330 330 331 331 332 338 338 335 332 325 322 323 325 330 330 326 325 324 323 324 325 326 326 325 323 321 321 321 320 319 318 318 320
311 312 313 313 313 313 313 313 314 312 312 311 312 313 311 309 312 312 314 316 316 316 314 314 315 316 317 318 320 322 324 324 325 325 323 324 325 325 326 325 326 329 330 328 328 330 331 329 327 327 326 327 329 328 329 330 330 332 332 333 337 335 333 334 328 322 323 327 325 323 328 330 327 326 324 322 323 322 323 324 323 322 322 322 322 321 319 319
312 313 313 313 313 313 313 312 312 312 312 311 311 314 313 311 311 311 315 316 315 316 316 314 315 316 316 317 318 320 324 324 324 325 323 323 325 326 326 325 326 330 329 327 328 329 329 327 327 328 327 328 329 329 330 330 330 331 332 333 335 335 334 332 327 324 329 334 329 324 332 339 337 332 328 324 324 323 323 324 323 323 323 323 322 321 321 321
311 312 313 313 312 312 312 311 311 311 311 310 311 313 314 312 311 311 315 315 314 315 316 315 316 317 316 318 319 320 324 326 323 323 322 322 324 325 327 327 327 329 328 327 328 329 327 326 327 328 328 330 331 330 329 329 330 332 333 332 332 334 337 335 330 329 335 338 330 324 331 338 336 331 328 327 325 325 325 324 325 323 323 324 322 320 320 321
311 311 312 312 312 312 310 310 311 311 311 311 311 312 312 313 312 310 312 313 312 314 315 314 315 317 317 319 321 322 326 325 321 322 320 321 323 323 327 329 328 328 327 328 331 330 327 327 328 328 329 331 330 329 328 328 330 333 333 333 332 331 335 338 337 335 337 336 332 330 330 333 334 331 328 329 327 327 327 325 326 325 323 324 323 321 320 319
310 310 311 311 311 310 309 310 311 311 311 311 311 311 311 312 311 309 311 311 313 315 316 315 315 316 318 321 322 323 324 323 324 324 319 319 322 324 329 328 327 328 326 328 332 329 325 327 328 327 328 328 327 328 327 327 330 332 333 333 332 332 336 340 341 338 333 332 335 333 329 331 336 334 329 329 330 330 329 327 326 326 323 323 322 321 320 319
309 309 310 310 309 308 308 309 310 310 310 311 311 311 311 311 310 312 312 312 315 317 316 316 316 316 319 322 321 321 322 323 325 323 319 319 320 323 328 327 325 327 325 326 331 327 324 326 326 325 327 326 326 328 328 329 329 329 329 330 329 330 334 337 338 336 332 331 333 333 329 330 336 337 329 327 331 329 326 326 325 325 325 323 322 321 320 319
308 308 308 308 308 308 308 309 309 310 310 312 312 310 309 310 311 313 311 312 317 318 317 316 316 319 321 321 321 321 321 323 322 320 320 322 320 322 325 324 325 327 325 326 327 325 323 323 323 325 326 325 326 328 330 330 329 329 329 328 327 329 333 336 335 335 335 332 331 332 331 328 333 341 333 325 333 332 325 327 326 324 326 325 324 322 320 320
307 307 307 307 307 308 308 309 309 309 310 312 311 309 308 309 310 311 309 312 318 318 317 316 317 321 322 320 321 320 320 323 322 320 322 323 323 325 326 326 327 326 326 328 326 324 324 324 325 326 325 325 327 328 328 328 328 330 331 329 329 330 334 336 332 332 335 332 330 331 330 327 330 339 336 326 331 332 328 331 330 326 326 326 326 323 322 326
307 306 306 306 307 307 308 309 308 309 311 311 310 307 307 309 310 311 310 313 318 317 317 318 319 322 321 319 320 319 319 321 321 322 323 324 324 325 327 328 327 325 326 328 327 326 327 327 327 326 325 325 328 329 327 326 327 328 329 330 332 331 332 334 329 329 331 329 329 327 327 328 328 331 332 327 327 327 328 330 330 327 324 324 325 323 324 328
307 306 306 306 307 307 308 307 308 311 310 308 308 307 308 309 310 310 311 313 316 316 317 319 320 321 320 320 320 319 319 319 321 323 323 324 325 325 326 327 327 328 329 328 327 327 328 328 327 325 325 326 327 328 327 327 328 326 326 329 333 331 331 332 328 328 331 329 326 323 324 329 328 326 327 325 323 323 326 328 332 334 328 325 325 324 324 326
307 306 306 307 306 307 307 307 309 310 307 305 308 309 308 309 310 309 310 312 314 316 318 319 321 321 320 320 320 320 319 319 321 323 323 324 325 326 326 325 326 330 330 327 327 328 329 330 327 325 327 327 325 326 327 327 326 326 326 329 331 329 330 332 329 330 331 327 322 320 324 330 330 327 325 323 323 323 323 327 333 335 331 327 324 322 323 324
306 306 306 306 307 307 307 307 309 309 306 306 308 308 308 309 309 309 309 312 315 318 319 320 321 321 321 320 320 320 319 320 321 322 323 324 324 325 326 325 326 328 328 327 326 327 329 329 326 324 326 326 326 326 326 326 327 327 327 329 330 329 332 333 329 329 331 327 323 323 327 331 328 324 322 321 324 325 323 323 324 327 327 325 321 320 324 327
305 306 306 306 307 307 307 307 308 307 306 308 308 308 307 307 309 309 309 311 316 319 319 319 320 320 321 321 321 320 320 321 322 322 323 323 323 324 325 326 326 326 326 327 326 327 329 328 324 324 326 324 326 326 323 325 329 328 328 329 328 329 336 336 326 325 327 327 327 326 328 331 326 323 323 322 325 326 323 320 320 323 326 323 322 324 328 328
305 306 306 306 306 307 307 308 308 306 307 309 308 307 308 307 309 310 307 309 315 318 319 320 319 319 321 320 320 321 321 321 321 321 322 322 323 324 324 325 325 325 324 324 326 327 328 327 323 323 326 324 325 325 322 325 328 328 329 328 326 328 334 335 329 327 327 328 329 325 326 330 327 326 327 324 323 324 323 322 319 322 325 323 323 327 329 328
305 305 305 305 305 306 306 307 306 305 306 308 308 308 309 309 310 310 309 309 313 317 318 318 318 318 320 320 320 321 320 320 321 321 321 321 322 323 323 325 324 324 323 323 325 326 326 327 323 322 324 324 325 326 325 327 326 327 328 326 327 331 330 330 331 332 329 329 332 328 325 328 327 327 327 324 323 323 322 322 319 320 323 324 324 326 325 324
304 304 305 305 305 305 306 306 305 305 306 307 308 309 309 308 309 311 311 309 311 315 316 316 316 317 319 319 320 321 319 320 321 320 320 320 321 322 323 325 324 324 323 322 325 325 324 327 325 321 322 324 326 326 326 327 324 324 326 324 327 331 330 328 329 331 330 328 331 331 328 331 330 326 326 325 325 323 322 322 320 319 322 323 321 321 321 322
303 304 304 304 305 305 304 304 304 305 306 307 307 307 307 307 307 308 309 309 310 313 313 314 315 317 318 318 319 320 319 320 321 320 320 320 320 321 322 323 324 323 323 323 324 323 322 326 327 322 319 323 327 326 326 326 323 324 326 325 326 327 327 328 328 330 332 331 333 331 327 334 335 326 322 322 324 323 321 322 321 318 319 320 318 319 322 323
303 304 304 304 305 305 304 304 304 304 306 307 305 305 306 306 307 307 307 308 310 312 312 313 314 316 317 317 318 319 319 320 320 320 320 320 320 322 322 322 323 323 323 324 325 323 323 325 325 322 320 324 327 324 324 325 323 324 325 325 325 325 325 327 327 329 330 330 335 333 326 331 336 327 320 319 321 323 322 321 321 317 317 318 316 319 323 323
303 304 304 303 304 304 304 305 305 304 305 306 304 304 305 306 307 308 308 308 309 311 312 313 313 314 315 316 316 316 318 319 320 319 320 320 320 322 322 322 322 323 324 325 325 323 324 324 323 322 322 323 322 319 321 325 323 323 324 324 324 323 323 325 326 328 329 327 330 331 326 328 332 327 322 320 320 322 323 322 319 316 314 315 316 319 324 325
303 304 303 303 304 304 303 304 304 303 304 304 303 303 304 305 306 307 308 310 310 310 311 313 314 313 315 316 316 315 316 318 318 319 319 319 319 320 321 321 323 323 324 326 326 324 324 323 322 321 320 320 319 317 319 322 323 323 324 324 324 323 322 324 325 327 329 328 327 328 325 328 333 330 323 321 320 319 321 320 317 314 313 314 316 320 323 325
303 303 303 303 303 303 303 303 303 303 303 303 303 303 304 304 305 306 306 308 310 309 310 312 313 312 313 316 316 316 317 318 317 317 318 320 320 320 321 321 322 324 324 325 325 325 324 323 322 322 321 321 322 322 320 320 321 323 323 322 323 323 323 325 326 325 328 328 326 327 326 326 330 328 320 320 321 319 319 317 315 314 314 314 316 318 320 323
302 302 302 302 302 302 303 303 302 303 303 302 302 303 303 303 305 306 306 307 309 309 309 310 311 311 312 315 317 316 316 318 318 315 315 318 320 320 322 322 321 323 323 323 324 324 324 324 323 323 324 325 325 326 325 323 322 323 323 322 322 323 323 324 324 323 326 326 325 326 325 321 323 322 317 318 320 318 317 315 314 314 314 314 315 317 319 322
302 302 302 301 301 301 303 303 303 302 302 303 302 302 302 303 303 305 306 306 307 308 309 311 311 310 310 313 315 316 316 316 317 315 314 316 318 319 321 322 320 322 322 323 324 323 321 322 323 323 324 324 324 325 325 324 323 323 323 322 322 323 323 322 323 323 324 324 324 325 324 321 322 320 317 318 320 320 317 316 316 315 314 315 315 316 317 320
302 301 302 302 301 301 302 303 303 302 302 302 302 302 302 302 302 303 304 305 306 307 308 310 311 311 311 311 312 315 316 315 316 316 315 315 316 318 321 321 321 321 321 321 323 322 320 320 322 323 323 323 324 325 323 322 323 322 323 323 322 322 323 323 324 323 323 324 324 323 322 323 322 318 318 318 318 318 317 316 316 316 316 316 314 314 316 319
302 300 301 302 303 302 302 303 303 302 302 302 302 302 302 302 302 302 303 304 304 306 307 309 311 312 313 312 311 314 316 315 316 317 316 316 317 319 320 321 320 321 320 319 320 321 320 320 320 321 322 322 323 325 323 322 322 322 322 322 322 322 323 323 323 323 322 323 323 321 321 322 320 318 318 317 315 315 314 314 314 314 314 316 315 315 317 318
301 300 300 301 302 302 301 302 302 302 302 302 302 302 302 302 301 302 304 304 304 304 306 307 310 312 313 313 312 313 315 316 316 316 317 318 319 320 320 321 321 320 319 320 320 320 320 319 317 317 320 320 321 322 322 322 322 322 321 321 321 321 322 322 322 322 322 322 321 320 322 321 319 319 319 316 315 314 312 310 311 311 313 316 317 317 317 316
301 301 301 301 301 301 301 301 302 302 302 301 302 301 301 302 302 301 303 304 304 305 305 305 308 311 312 312 312 312 313 315 316 317 317 317 318 319 319 321 323 321 319 320 320 319 320 320 316 316 319 320 320 321 321 321 322 322 322 321 321 322 322 322 322 322 322 322 321 321 322 321 319 320 319 317 315 313 311 311 312 312 313 315 317 317 316 315
299 299 300 300 300 300 301 301 301 302 302 302 301 301 301 301 302 301 302 303 305 306 305 304 305 308 311 311 311 311 311 313 315 316 317 317 317 317 317 321 324 321 319 320 320 318 319 318 315 316 320 321 320 321 321 321 321 322 322 322 321 321 322 321 322 322 322 322 322 322 322 320 319 320 320 319 316 314 314 314 314 313 313 313 314 315 315 314
299 299 300 300 300 300 301 301 300 301 301 301 301 301 301 301 302 302 301 302 304 305 306 304 303 305 308 311 311 310 310 311 312 313 314 315 315 315 318 321 322 321 319 319 319 318 318 318 316 318 321 322 320 319 318 319 321 322 321 320 320 321 321 321 321 321 321 321 322 322 321 321 322 322 320 320 319 315 314 314 313 313 312 312 312 312 313 312
Wind_Speed
30 31 32 32 31 30 30 31 31 31 31 30 30 31 32 34 32 29 31 31 30 29 29 29 28 27 27 25 23 20 19 18 17 18 17 22 29 22 17 26 24 15 13 14 15 11 6 8 11 10 4 2 2 2 1 0 1 2 2 3 3 2 3 2 1 1 4 3 3 3 2 5 1 1 1 1 4 3 5 5 4 6 7 7 14 25 29 30
30 30 31 31 31 30 30 31 30 29 31 30 30 31 31 33 32 28 30 31 31 30 28 29 29 29 27 25 23 21 20 19 16 17 23 26 24 22 18 21 25 20 15 16 18 13 6 6 10 7 4 2 1 1 0 1 1 2 2 2 3 4 2 2 2 1 2 4 4 2 3 5 4 3 1 1 1 2 5 3 4 7 6 10 18 26 29 30
30 31 30 28 29 28 28 29 29 28 29 29 29 31 31 32 33 29 30 32 31 32 29 29 30 30 28 26 24 23 19 14 11 16 28 27 19 21 22 18 22 22 18 19 20 16 11 10 11 6 4 1 2 2 1 1 1 1 3 2 4 4 2 2 2 3 2 3 5 3 3 4 2 2 2 2 3 3 5 4 4 6 7 8 12 21 27 27
29 30 30 27 26 27 26 26 28 26 25 26 27 30 31 32 33 30 30 32 32 33 31 30 31 31 30 27 25 23 14 5 8 17 29 29 21 20 22 20 20 21 20 20 19 16 14 12 10 5 4 2 2 2 3 2 2 1 3 4 5 3 3 1 2 3 2 3 4 2 4 3 1 1 3 4 3 3 5 6 8 10 12 12 10 17 23 23
28 29 29 28 26 26 25 24 26 25 23 24 25 27 29 30 33 30 28 31 32 33 32 31 31 32 31 28 26 23 13 3 6 20 32 30 28 23 23 23 19 20 22 20 18 16 13 10 7 4 3 3 2 2 3 5 3 2 3 5 5 3 3 3 2 2 2 2 3 3 4 1 1 0 2 4 4 5 5 6 9 11 14 15 14 16 19 19
29 28 28 27 26 26 25 24 24 25 24 23 23 25 26 26 32 31 25 30 33 33 34 33 33 33 32 30 28 25 13 5 6 21 35 32 31 28 24 23 21 22 24 20 15 13 10 5 5 4 3 2 4 4 4 5 4 2 3 4 6 5 5 4 3 1 1 4 3 2 2 0 3 2 3 5 6 7 5 6 7 11 18 21 19 18 16 16
28 28 28 27 27 25 25 25 25 26 26 24 22 22 23 21 28 32 25 28 31 32 34 34 34 34 32 30 27 20 11 7 4 13 32 36 34 31 26 23 23 25 24 19 12 9 7 6 6 5 4 3 4 5 4 4 5 4 3 4 5 5 6 5 3 3 1 4 2 3 2 1 1 2 1 3 7 8 7 4 8 13 20 21 17 16 16 18
27 28 29 27 26 24 23 25 24 24 24 25 23 20 19 17 22 28 25 27 30 32 34 35 36 35 36 32 20 9 9 11 3 7 27 37 35 32 28 25 25 27 25 20 15 9 7 8 8 5 4 5 4 5 4 4 2 4 4 3 2 3 5 5 4 3 2 3 2 4 2 3 5 3 1 5 8 7 7 4 8 12 16 16 15 15 14 16
28 29 29 28 26 25 25 25 23 22 23 24 23 20 18 15 17 20 19 21 29 34 35 37 37 36 38 29 14 6 12 19 10 6 25 36 35 34 31 28 29 28 24 19 16 12 8 7 8 5 5 5 4 3 5 5 2 5 5 3 3 3 5 5 4 4 3 3 3 4 3 6 5 3 3 8 9 8 5 5 8 11 12 13 12 13 14 13
29 30 30 29 27 26 26 25 23 22 23 24 24 22 20 16 14 13 11 11 23 35 36 37 37 37 36 23 11 8 13 21 15 10 25 35 35 35 33 31 32 30 23 16 13 10 7 6 6 5 4 2 3 4 5 6 3 3 3 3 4 3 5 5 4 5 4 2 3 5 5 6 3 3 4 7 8 7 6 6 7 10 11 12 11 12 15 15
28 30 29 28 26 25 25 24 23 23 24 24 24 25 22 17 11 9 8 8 16 32 37 35 37 38 30 19 10 7 11 20 18 16 26 34 36 34 34 33 33 32 23 12 7 7 7 7 7 5 2 1 2 3 4 5 5 3 4 4 3 2 2 5 5 5 3 2 5 6 3 5 2 3 6 6 6 3 7 8 7 9 9 10 11 10 12 14
26 28 28 26 24 23 23 23 24 24 24 23 24 25 23 18 12 6 7 8 9 24 37 35 37 37 24 13 10 9 16 18 19 24 28 33 36 33 33 33 33 33 26 14 8 8 10 8 9 6 1 1 2 2 3 4 5 4 6 4 3 3 3 6 5 5 5 3 5 6 3 6 6 7 8 9 6 4 7 9 8 8 8 8 9 9 9 13
24 27 27 25 24 23 23 23 24 25 25 25 24 26 25 20 15 7 5 9 7 13 35 38 36 36 21 7 10 15 18 18 23 30 32 33 33 28 28 30 29 28 27 20 13 10 11 9 12 7 2 2 2 1 3 1 5 3 4 4 1 4 4 7 6 5 7 4 5 7 2 6 8 10 11 11 9 6 7 8 7 7 7 7 7 8 8 12
24 26 26 25 25 24 24 25 24 25 27 26 25 26 27 24 19 12 5 7 6 6 27 41 39 32 15 4 12 20 20 22 27 32 33 33 29 24 24 25 24 22 21 21 17 12 11 12 13 7 2 3 1 2 2 1 3 3 3 2 1 1 5 6 6 8 7 4 6 7 3 6 6 9 9 9 9 9 8 7 7 6 6 6 6 7 8 11
24 25 27 27 27 26 26 25 23 23 24 24 25 25 26 26 25 19 9 6 5 3 17 39 41 25 7 2 10 20 21 21 29 35 35 36 31 22 21 24 21 19 19 18 16 13 13 13 11 5 1 3 3 2 1 1 1 2 3 1 2 4 5 5 4 12 10 4 6 8 3 7 8 9 8 4 8 11 9 8 7 7 7 7 7 7 7 9
25 26 27 26 27 27 27 26 23 22 23 22 22 23 25 26 25 22 15 9 6 6 12 25 29 17 5 3 9 17 14 12 28 37 36 39 36 26 26 27 20 18 18 15 14 13 12 10 5 3 3 3 4 2 2 1 1 2 3 3 4 5 5 5 3 9 10 4 5 7 4 4 5 8 8 4 8 10 9 9 8 8 8 8 7 7 7 7
27 28 27 26 27 27 26 25 25 24 23 22 22 24 24 21 21 20 14 9 7 9 13 15 17 9 2 5 9 13 9 10 26 36 35 37 38 36 32 21 13 17 16 11 10 7 6 4 2 2 3 2 4 5 4 5 4 3 3 3 4 5 4 2 3 4 8 7 7 8 6 7 5 5 6 4 8 9 9 9 9 8 8 7 8 8 8 8
26 28 27 27 26 25 25 24 25 25 23 23 23 24 22 17 19 19 12 8 7 7 12 12 14 6 2 6 8 11 16 16 24 33 33 33 35 39 32 17 13 16 12 6 3 3 3 2 2 2 2 3 5 7 8 8 7 6 6 5 4 4 5 4 4 3 9 8 8 8 8 12 10 7 7 6 6 9 9 9 8 9 8 7 7 8 8 9
26 28 27 27 26 24 24 23 24 26 25 24 23 22 20 14 12 13 11 7 5 4 5 4 6 3 1 6 6 11 21 23 23 27 30 31 31 30 23 19 17 14 11 5 2 3 3 2 2 4 7 7 9 10 7 6 10 10 9 6 4 4 5 5 4 5 11 9 8 9 9 12 11 9 8 9 7 8 9 9 8 8 8 8 7 7 9 10
28 28 27 27 28 26 24 24 24 27 28 27 27 21 13 9 6 6 7 5 7 8 4 2 3 3 5 2 5 14 20 21 18 19 27 33 32 23 14 14 12 9 10 11 7 5 5 5 6 9 11 11 11 10 7 5 8 9 7 5 6 5 5 5 4 5 8 8 8 9 9 11 11 9 10 10 8 8 9 9 9 9 9 9 9 8 10 10
29 29 27 27 28 27 25 25 25 27 28 30 30 16 4 9 6 4 7 7 11 12 10 4 5 4 3 4 8 18 14 12 10 13 27 34 30 21 10 11 12 8 10 11 9 5 5 9 12 12 12 12 12 11 9 8 6 6 5 5 5 6 5 5 3 3 3 3 6 6 7 10 10 8 9 9 8 9 10 11 11 11 10 9 9 10 10 9
31 29 27 27 27 27 26 26 26 27 28 27 26 10 3 15 8 3 10 4 7 11 11 9 4 4 3 6 7 16 9 9 10 11 23 28 22 16 11 12 14 11 11 11 9 6 6 11 15 13 11 11 10 10 10 9 6 5 4 4 4 5 4 2 3 2 2 2 5 3 5 9 9 8 9 8 8 8 10 13 13 13 11 10 10 10 10 9
31 31 28 27 27 27 25 27 27 28 26 22 18 8 7 20 11 5 11 2 2 9 7 10 7 4 3 5 6 11 6 11 13 12 22 23 15 14 15 15 15 13 13 14 12 10 8 10 13 12 11 12 11 10 10 7 6 5 4 4 3 4 4 1 3 2 1 3 3 2 4 7 7 8 9 9 9 9 10 12 12 12 13 13 13 12 11 11
31 31 28 28 28 26 26 29 27 27 27 21 13 9 12 21 15 8 8 2 1 4 7 11 7 3 4 3 3 4 4 8 10 14 24 22 13 12 14 15 16 14 13 18 18 14 7 7 12 12 11 13 11 10 10 7 5 5 5 5 4 3 4 3 3 2 1 3 1 3 5 6 6 7 10 9 9 11 11 12 12 11 10 10 11 11 11 12
31 30 28 29 29 28 29 26 22 23 24 15 7 10 15 20 18 10 4 1 1 0 4 8 4 5 7 4 2 1 1 4 6 13 21 20 14 11 11 11 11 13 17 21 19 11 6 9 14 14 12 11 11 11 11 9 5 5 6 6 7 6 3 2 3 3 2 5 3 2 2 6 4 5 9 6 5 8 8 11 14 13 10 9 9 9 10 10
31 30 30 30 29 31 27 14 15 23 18 9 9 14 17 17 18 13 3 3 1 1 4 7 5 8 9 5 4 1 2 3 3 10 15 13 8 6 10 9 5 11 18 16 11 5 5 10 14 14 13 11 9 9 10 10 6 4 6 7 8 6 6 6 4 3 2 4 3 3 3 6 6 6 9 7 7 10 9 9 12 11 10 10 10 10 10 10
30 30 32 31 32 33 20 8 16 21 10 7 15 16 14 16 17 12 3 3 2 3 6 4 3 8 9 7 9 4 4 3 3 6 8 6 4 1 6 11 7 10 13 8 5 5 9 14 13 13 13 10 8 8 9 10 7 4 5 8 9 6 6 7 6 3 2 2 4 3 3 3 6 6 7 8 9 12 12 11 10 10 11 11 11 11 11 12
31 33 32 30 33 28 15 15 21 13 6 12 18 16 15 17 16 8 4 1 2 4 6 3 3 7 6 7 11 4 3 4 6 6 3 3 4 3 4 14 13 13 14 10 7 8 14 17 16 16 12 9 9 8 8 11 6 3 3 7 7 5 5 6 6 3 1 2 4 3 2 2 6 6 5 5 8 11 12 12 12 11 10 11 11 11 12 13
32 33 32 32 31 20 14 22 21 10 11 20 20 17 20 19 11 4 1 2 1 3 4 5 5 7 6 7 9 4 4 1 3 3 5 5 3 3 3 9 12 16 14 9 6 6 9 14 16 15 10 8 10 7 9 12 6 2 5 8 6 5 7 6 5 4 3 1 5 4 3 2 5 7 5 2 5 11 11 10 11 12 11 10 10 11 11 10
34 33 33 34 26 16 17 21 18 14 19 24 22 21 21 14 6 4 3 3 2 2 3 4 6 9 11 9 7 6 4 2 1 3 4 3 2 3 2 1 5 12 9 3 4 3 4 10 11 10 8 8 9 6 8 12 8 5 8 9 7 6 6 4 3 5 2 4 6 7 7 5 4 6 5 4 6 8 8 7 9 9 9 9 9 9 9 8
35 34 34 34 24 17 16 14 14 19 22 24 24 22 16 6 2 5 5 0 2 2 3 4 7 12 16 14 9 8 5 3 2 6 5 2 2 2 2 3 3 4 4 5 3 1 6 11 7 5 6 8 9 4 1 7 10 8 5 6 5 3 4 3 4 3 2 5 5 7 8 7 6 6 6 6 7 7 7 7 8 6 5 5 5 5 6 7
34 34 35 32 23 18 16 14 19 25 27 28 23 13 7 2 1 4 2 2 2 3 4 5 8 12 16 16 12 10 8 1 3 7 8 6 4 4 5 6 6 5 4 7 4 2 6 6 4 3 3 6 10 5 3 4 8 7 5 7 6 2 2 1 1 1 4 6 4 3 4 5 7 7 7 10 10 9 8 7 6 7 7 5 6 5 5 5
34 33 31 27 20 16 18 20 24 29 29 27 17 7 3 3 5 6 2 1 1 2 4 6 8 11 14 15 11 11 9 4 4 6 8 8 6 8 7 6 8 5 5 11 9 6 4 2 1 6 3 4 11 10 5 5 7 8 8 8 6 4 3 3 3 1 4 5 3 2 3 4 4 4 11 17 16 10 7 7 6 7 7 7 7 6 4 4
34 31 26 22 18 16 20 22 23 29 25 16 8 6 5 4 5 6 4 2 1 0 1 6 9 11 13 13 11 13 10 6 7 6 8 8 6 8 8 6 6 2 4 10 6 7 9 2 6 11 5 6 11 10 8 6 5 6 6 6 6 5 4 5 4 3 4 3 2 2 2 4 3 3 9 15 13 7 4 7 7 5 5 5 5 3 3 4
34 30 25 21 19 18 22 21 19 27 23 10 4 7 7 6 4 5 4 3 2 1 1 5 10 11 11 9 9 13 9 6 9 8 7 9 8 9 8 7 8 3 7 10 3 6 11 4 7 8 3 11 13 6 7 9 4 2 3 5 4 4 4 3 3 4 4 1 1 2 3 4 4 6 8 7 9 7 5 6 5 6 4 4 4 3 4 5
33 28 23 21 20 18 22 19 19 26 21 7 5 6 6 6 3 3 5 4 3 4 3 4 8 9 8 5 7 11 6 4 10 9 4 7 10 12 11 8 10 9 9 10 4 5 8 3 4 4 1 8 13 8 10 11 6 2 5 7 5 3 6 4 1 0 3 2 3 3 4 5 3 7 9 9 9 8 7 6 6 7 4 4 4 5 5 6
29 23 17 17 20 19 20 20 23 27 16 4 7 7 4 4 1 1 4 5 3 4 3 3 5 7 6 4 6 11 7 4 9 9 3 4 6 11 13 9 11 12 9 7 3 3 6 2 2 3 3 3 5 9 8 4 4 6 6 7 4 3 3 4 1 2 2 3 3 2 6 4 2 5 5 6 10 9 7 7 7 7 4 5 6 6 6 6
24 17 10 13 20 19 20 24 26 21 8 3 8 6 2 1 2 0 3 5 3 4 2 3 3 4 6 6 6 10 11 7 9 8 5 4 2 7 12 10 9 11 9 6 4 3 5 4 3 2 5 2 3 9 6 4 2 5 6 7 5 2 2 3 3 2 2 4 4 3 5 4 5 6 2 5 11 10 8 7 7 7 7 6 6 7 7 6
20 11 5 12 21 20 23 27 21 11 4 5 7 5 2 2 4 3 1 1 2 3 3 3 2 1 3 6 6 10 12 9 10 8 5 5 2 4 11 10 9 13 11 5 5 5 5 5 1 2 2 3 3 5 9 5 3 3 5 6 4 2 3 4 3 3 3 3 4 3 3 4 7 7 6 9 11 11 11 8 8 9 8 7 7 7 7 6
11 5 3 15 23 22 26 23 11 5 3 4 5 3 3 3 4 4 1 3 1 1 2 3 3 1 1 2 3 6 10 9 10 9 5 7 5 3 8 9 8 13 13 6 4 5 4 3 4 1 1 3 4 6 11 13 8 6 7 8 5 2 2 2 2 2 4 4 3 3 4 6 6 4 9 12 11 11 12 10 9 8 8 9 8 8 7 7
5 4 3 18 28 27 24 14 3 3 3 3 3 2 2 2 1 5 2 4 1 1 1 2 3 4 2 1 1 1 6 7 8 7 4 6 6 3 7 10 9 12 13 6 3 5 4 2 5 5 3 5 8 6 6 11 12 9 9 10 9 6 4 3 4 2 3 4 4 4 5 7 5 4 8 11 9 9 10 10 9 8 10 10 8 8 8 7
4 4 6 22 33 28 17 5 2 4 2 3 4 2 2 1 1 4 2 3 1 2 2 2 1 3 3 3 2 0 3 5 7 8 5 7 10 7 8 13 11 11 12 8 6 5 3 4 6 5 5 5 4 1 1 4 6 4 3 6 7 5 5 5 7 5 3 4 3 2 4 7 5 4 6 9 9 9 10 11 10 9 10 10 8 8 7 7
3 4 11 27 33 24 11 3 3 3 1 2 3 1 0 0 0 2 1 3 1 3 2 1 1 1 1 3 3 2 2 2 3 5 5 6 9 7 7 13 12 10 10 9 8 4 3 4 5 3 1 1 3 2 3 2 4 3 2 4 7 9 8 6 5 4 4 5 3 2 6 7 5 4 3 5 6 7 8 10 11 9 8 8 9 9 8 8
3 4 6 22 29 19 8 4 6 5 4 2 3 2 1 0 1 2 1 3 3 1 0 1 1 0 0 2 4 4 5 3 1 1 2 2 5 5 7 13 13 9 7 6 6 5 2 4 7 5 3 1 1 1 1 1 4 6 7 8 10 14 12 5 1 2 3 6 7 6 7 7 4 3 2 3 4 6 7 8 10 10 9 9 8 8 8 8
6 3 2 10 15 8 2 3 6 7 6 4 3 3 2 0 2 2 1 2 3 3 2 3 2 1 1 1 3 2 5 4 1 1 3 1 2 2 5 12 13 10 10 6 2 2 2 4 8 9 10 9 9 10 9 7 6 4 7 13 14 16 16 9 3 3 4 5 6 6 9 8 4 0 2 3 4 6 5 5 6 7 9 10 9 8 8 7
5 2 2 3 2 0 1 0 4 6 6 5 2 3 4 2 2 1 1 1 1 2 3 4 2 2 1 0 2 1 4 3 1 2 4 3 2 2 2 8 11 12 13 9 3 3 2 3 7 10 12 12 11 10 9 10 8 6 10 17 16 13 13 10 5 6 8 4 4 9 15 13 9 5 2 2 5 7 6 6 6 6 8 9 10 9 8 7
4 2 5 5 1 2 0 1 3 5 6 8 5 4 8 7 3 1 2 3 2 1 2 3 1 3 3 3 1 1 3 2 3 4 6 6 4 2 2 5 9 13 12 8 4 4 3 3 7 9 10 6 3 5 9 13 15 17 18 20 17 13 14 13 12 14 11 5 5 16 19 18 14 7 7 8 8 8 8 9 9 9 9 10 9 8 8 8
3 2 5 5 3 4 5 4 6 6 8 10 5 5 9 10 7 4 3 3 3 2 2 2 2 5 5 5 4 3 3 3 4 4 5 5 5 2 2 2 7 12 11 6 3 4 3 3 6 8 10 5 2 7 13 14 15 17 19 21 21 20 20 19 19 21 15 9 14 22 17 17 17 9 9 11 10 10 11 11 9 8 8 8 8 8 10 10
4 3 2 4 3 6 9 7 7 7 10 11 6 5 8 10 10 7 3 2 3 3 3 2 4 6 6 5 5 4 4 4 4 4 4 4 5 4 2 3 4 6 9 7 4 3 3 3 5 6 9 8 3 5 12 14 13 13 15 19 20 21 22 23 23 23 18 14 21 23 15 16 16 10 10 11 10 9 9 6 5 6 7 8 9 10 11 11
4 3 4 4 3 4 7 6 6 6 6 8 6 5 7 9 10 9 6 6 4 3 6 7 7 7 8 8 6 6 6 6 6 6 6 6 5 5 4 4 2 2 6 8 5 4 4 4 5 5 7 8 6 5 8 14 15 15 17 19 19 18 20 21 21 20 16 17 24 21 15 16 12 8 9 9 7 7 6 5 6 8 9 9 10 11 12 12
4 3 6 6 3 5 6 5 7 6 5 6 6 5 7 10 11 9 6 7 8 6 8 13 13 8 6 7 9 10 10 8 9 9 7 8 7 5 5 5 5 4 5 6 4 5 6 4 5 5 4 6 8 9 10 11 13 14 16 16 17 18 19 20 22 20 17 18 21 17 14 16 9 8 8 6 6 8 9 10 10 9 10 11 12 13 13 12
5 3 5 6 4 5 6 5 6 7 6 7 8 8 9 10 11 10 6 5 9 9 9 13 15 9 5 8 12 14 13 13 13 10 6 5 6 5 4 4 6 7 6 6 4 5 8 6 4 5 5 6 9 11 9 7 8 10 13 19 23 24 24 22 21 19 17 17 16 15 16 13 5 8 9 8 9 11 11 11 11 11 12 12 12 13 13 13
Wind_Direction
235 234 235 233 233 234 230 228 229 229 229 228 229 232 231 225 221 217 215 214 214 215 213 204 196 199 203 207 210 211 209 203 199 197 203 213 213 212 205 204 206 208 204 198 203 210 227 238 248 242 196 159 141 132 160 94 113 78 87 152 200 224 257 266 305 249 156 154 200 227 131 125 188 338 120 41 60 94 100 81 67 54 58 91 126 144 150 152
233 231 233 233 232 232 229 225 226 227 225 225 227 229 231 223 220 218 214 214 211 212 213 205 198 197 199 204 206 208 204 198 200 208 213 214 214 212 206 206 208 213 208 194 196 200 205 229 239 227 139 132 203 113 121 287 104 121 134 147 216 200 219 252 165 69 99 159 166 139 105 115 169 175 104 131 188 139 111 105 89 79 73 98 123 139 146 151
232 229 229 231 231 229 227 223 222 225 221 220 224 226 229 222 215 215 215 213 210 209 210 205 198 194 197 198 201 203 193 192 212 224 220 211 209 211 206 206 207 212 210 194 192 197 207 218 222 202 123 164 215 120 145 237 171 165 136 150 241 202 125 4 87 86 60 153 136 104 88 92 150 154 120 169 177 169 163 162 123 128 145 137 137 143 149 154
231 227 225 226 229 226 223 220 217 218 216 215 219 223 228 224 218 217 214 211 209 207 207 205 198 194 195 193 197 193 172 201 235 219 219 209 202 205 203 204 200 205 209 195 189 195 214 221 213 179 136 212 237 125 162 207 194 162 155 176 227 181 113 1 47 62 26 97 128 123 80 70 295 129 143 147 119 251 224 194 182 175 164 158 157 154 156 158
229 227 223 221 224 225 221 216 213 213 212 210 214 221 224 223 222 218 213 210 208 205 204 203 198 194 191 188 189 176 154 228 212 203 215 208 201 202 201 203 195 199 202 193 190 194 214 222 194 151 126 200 191 128 189 203 167 169 215 205 215 144 119 215 119 44 323 73 84 71 82 117 290 57 172 142 149 235 229 196 192 174 163 165 165 161 162 164
227 225 222 218 217 220 220 215 212 210 208 206 210 218 219 221 220 217 214 210 207 204 203 200 197 194 189 186 183 170 169 218 163 196 212 206 202 202 199 200 194 196 195 191 194 191 205 203 171 169 139 187 192 181 210 200 155 162 241 235 224 157 139 196 142 204 285 76 77 101 158 276 27 317 240 168 193 226 219 184 176 171 168 166 162 162 167 172
227 222 219 216 212 214 217 213 207 205 207 208 208 212 212 212 214 216 214 208 207 203 200 198 195 193 185 176 172 177 203 229 147 192 206 201 201 202 198 196 193 194 189 189 193 182 181 160 168 176 146 193 210 199 209 184 162 167 229 249 223 156 145 167 152 199 167 106 141 131 112 80 122 273 278 206 228 238 238 184 143 160 162 157 159 169 176 179
221 217 216 215 211 209 209 209 207 203 204 207 204 205 207 203 205 211 208 203 205 202 199 197 193 190 180 164 156 186 226 218 188 172 196 196 196 198 195 191 192 190 185 189 190 175 165 159 175 165 156 207 200 196 178 115 155 187 210 237 190 143 151 154 149 184 188 156 151 96 100 228 209 206 247 245 247 247 236 168 124 140 151 157 168 178 180 182
217 216 216 214 209 205 201 204 210 205 198 199 197 194 200 204 203 211 208 198 201 200 196 193 190 185 178 162 147 203 219 209 212 173 185 189 189 192 190 186 189 186 181 189 190 178 168 170 187 169 165 205 197 203 168 136 222 212 202 198 152 164 170 155 153 181 204 196 134 113 229 257 232 197 250 247 239 240 216 152 136 141 154 170 176 181 182 185
216 214 214 212 206 201 201 201 205 205 200 198 199 199 200 207 215 225 222 210 207 199 191 190 185 179 173 158 151 212 208 197 204 184 181 186 186 186 186 185 185 181 178 183 188 184 168 162 174 150 128 178 213 207 171 168 193 201 189 174 168 178 176 162 171 196 205 220 180 169 228 266 250 201 244 259 248 230 188 170 162 152 167 180 180 186 186 187
216 212 211 209 202 197 199 199 200 204 202 200 205 209 205 205 219 233 227 242 223 196 188 187 180 176 171 160 174 204 174 180 190 179 179 186 184 182 185 186 184 180 174 164 164 165 145 137 138 127 130 170 218 188 190 186 153 129 112 127 199 222 198 175 182 204 184 234 205 169 243 280 266 223 221 248 271 206 172 187 184 171 181 185 184 188 188 193
217 213 210 205 198 194 197 200 201 199 199 200 201 203 199 197 208 224 217 237 236 192 185 183 179 177 167 169 197 173 160 174 179 176 179 184 183 184 185 186 185 181 174 149 110 122 125 130 135 126 175 146 107 149 238 208 134 103 100 112 275 318 274 209 195 198 170 216 197 144 312 277 233 230 217 226 240 182 171 187 192 191 192 188 189 189 191 197
213 211 208 202 196 192 195 202 204 198 196 198 193 192 192 194 210 227 221 228 250 195 185 182 178 173 163 186 198 168 165 173 173 174 177 178 178 180 182 183 182 181 177 156 121 113 116 126 137 126 58 92 128 197 290 218 121 93 96 110 324 342 286 224 196 185 175 202 167 137 284 263 234 234 222 223 216 183 184 195 201 206 203 200 195 193 197 196
208 207 204 200 194 188 191 199 202 198 196 196 194 198 197 196 211 220 226 223 230 200 185 181 175 170 168 201 185 174 169 169 175 173 170 170 163 158 167 173 171 173 171 150 126 112 112 120 121 105 44 103 93 340 3 35 104 116 102 89 146 242 271 243 198 174 179 214 153 136 240 257 255 247 234 226 198 183 198 210 213 216 213 212 206 201 204 198
202 206 204 197 192 188 190 193 193 192 189 190 196 203 198 196 206 215 229 220 198 236 190 180 172 165 170 225 184 180 168 164 176 175 170 166 153 143 152 155 152 154 152 139 124 110 113 122 111 89 124 113 68 24 115 63 25 132 130 214 208 204 257 286 222 176 176 219 166 145 224 264 263 251 245 217 176 183 199 212 218 220 216 212 213 210 211 208
196 200 203 194 188 188 190 190 190 188 183 184 189 190 187 190 200 209 223 222 211 236 200 179 170 159 160 182 173 175 171 176 179 174 172 169 161 151 143 142 137 137 138 128 123 112 103 108 103 96 120 123 119 125 145 109 296 198 150 188 203 200 239 302 277 188 169 158 190 191 217 267 271 257 250 203 169 182 196 209 215 220 219 210 210 211 210 212
195 196 200 192 185 187 187 187 188 188 186 180 174 174 176 186 196 200 207 201 195 209 206 188 170 160 164 146 146 163 171 186 176 168 170 173 167 154 143 135 123 121 117 104 112 107 73 78 116 128 100 132 160 151 172 185 198 205 159 197 218 195 198 234 268 206 160 154 201 217 232 243 262 290 282 236 179 179 193 210 216 221 223 215 211 210 208 203
193 194 198 192 186 186 183 183 185 185 182 175 172 173 174 180 189 195 199 177 162 197 210 192 164 156 244 176 155 161 164 168 171 166 167 171 165 157 150 140 127 120 109 85 86 80 39 42 102 131 145 182 185 178 196 195 172 171 178 199 220 193 192 206 230 194 164 181 206 204 233 247 255 282 289 274 208 188 201 210 216 223 224 222 214 210 210 203
189 194 196 191 186 185 182 181 182 179 172 166 166 167 170 172 174 187 194 173 163 212 223 189 167 148 125 183 173 157 161 162 166 167 164 162 160 155 146 138 139 135 138 156 170 141 125 92 108 178 190 194 195 190 203 182 156 173 185 180 174 185 222 216 224 208 175 187 215 201 219 243 250 257 262 267 239 211 216 215 219 225 226 228 219 214 213 207
188 191 191 187 184 183 181 180 177 175 169 157 149 147 155 162 157 189 192 186 207 232 269 31 35 28 60 85 145 140 152 160 163 169 165 160 154 144 132 135 139 147 165 165 161 158 152 164 198 204 191 190 190 187 208 194 162 180 182 174 181 185 240 237 234 240 178 179 224 214 218 239 245 248 248 251 242 230 231 227 226 224 223 225 219 216 213 212
185 186 187 185 181 178 179 177 173 174 169 154 150 149 159 170 168 200 189 211 219 226 257 266 33 21 35 14 150 141 139 159 170 173 166 160 152 144 147 152 149 170 182 156 136 130 157 192 209 203 185 183 185 181 206 218 193 198 183 170 194 192 226 250 241 251 154 168 251 241 235 250 253 250 250 246 236 229 227 226 228 224 222 221 218 216 213 216
182 182 185 183 178 176 177 173 168 171 166 156 159 164 194 181 170 121 162 202 229 208 245 259 313 327 338 343 186 162 143 158 170 174 165 161 158 157 164 166 166 176 169 145 130 138 184 211 205 190 176 177 185 184 198 221 217 220 204 159 192 206 206 296 339 348 106 195 264 279 252 259 263 257 256 251 239 233 224 222 223 221 221 219 217 217 213 215
181 181 182 178 173 174 174 169 165 165 162 158 169 174 193 192 185 142 157 117 280 191 218 242 258 275 282 319 210 186 180 165 163 169 168 167 169 169 166 168 173 168 160 161 165 172 193 209 189 173 175 176 184 190 192 219 225 217 205 166 198 216 177 223 304 292 211 213 238 330 300 271 265 265 262 250 242 244 235 227 224 219 218 217 216 216 210 209
180 181 181 173 169 170 166 162 160 162 164 162 168 173 186 195 189 159 152 79 340 188 199 210 223 250 228 251 215 205 210 177 164 165 172 173 165 166 171 169 167 165 171 175 176 183 185 167 160 164 181 179 179 190 190 204 223 221 209 179 182 193 181 200 210 190 300 309 313 30 333 284 249 254 259 252 246 248 246 242 242 233 224 226 225 221 215 211
178 180 175 166 166 165 156 152 155 162 165 163 167 162 168 187 190 172 130 51 246 277 186 180 187 234 223 212 206 259 259 200 181 166 174 178 164 159 172 171 167 170 175 176 176 187 173 143 152 167 182 179 178 191 194 192 202 228 220 188 172 166 142 121 133 111 34 312 294 90 331 286 279 266 262 268 270 260 254 246 246 245 236 233 234 229 222 221
174 175 167 162 163 158 151 149 163 164 159 164 179 160 153 166 180 179 133 37 272 236 160 150 154 206 209 183 139 98 224 217 173 158 170 185 179 157 168 168 168 172 171 171 174 182 167 154 155 167 178 178 185 196 194 184 177 223 220 178 167 152 110 107 126 131 185 257 286 102 170 269 305 290 268 277 284 275 272 253 245 246 240 231 227 225 220 221
168 169 164 159 157 154 151 152 163 162 155 171 172 160 150 150 159 169 120 32 271 165 143 153 158 175 184 162 132 132 210 167 115 165 176 194 192 72 164 167 161 170 164 158 183 174 156 160 159 164 171 177 193 202 193 178 167 224 215 166 173 179 143 128 119 133 198 250 325 20 133 257 291 268 259 275 281 279 274 265 254 242 237 236 230 222 218 217
164 166 163 158 156 155 154 154 156 160 162 154 153 154 153 144 143 148 109 88 208 133 141 176 148 148 156 141 139 164 274 142 162 188 146 133 155 67 163 176 168 164 163 167 184 161 155 168 170 164 165 180 197 201 189 175 175 237 192 153 171 173 144 117 102 104 34 28 301 300 129 220 276 270 278 288 278 271 264 258 256 247 235 233 233 224 219 220
163 164 163 159 157 156 156 159 159 159 152 145 144 153 152 140 126 105 122 186 113 93 148 156 136 141 141 130 147 199 299 149 188 175 114 118 130 67 157 182 167 157 167 185 170 141 156 172 168 161 167 188 192 192 182 180 195 208 115 97 91 92 90 87 95 95 40 343 241 226 166 211 274 278 281 285 258 257 256 253 249 247 241 230 228 227 223 223
163 164 164 162 158 148 148 158 161 156 151 149 148 147 138 124 102 111 185 216 82 100 155 150 158 153 147 147 156 191 232 285 294 135 139 142 79 60 86 108 141 151 163 161 126 113 134 153 158 164 178 179 171 179 180 178 172 128 101 83 72 55 59 63 60 79 61 284 239 202 188 197 263 277 252 219 230 239 242 255 251 248 252 240 228 228 226 222
162 163 164 165 158 145 144 149 156 158 157 155 150 138 121 85 58 163 178 207 66 151 163 139 160 155 157 171 181 183 201 293 237 166 161 143 94 94 118 79 70 115 126 110 109 52 119 145 166 174 175 157 151 170 165 159 150 118 102 106 97 36 27 32 18 65 178 258 249 214 191 185 227 255 246 238 245 239 226 232 233 222 219 215 203 207 212 208
161 163 164 166 156 147 159 158 154 159 161 158 148 129 114 96 222 203 176 60 60 185 176 152 169 169 167 177 187 180 176 256 233 186 174 163 161 171 173 168 147 129 149 154 162 157 137 163 182 140 162 153 147 149 43 133 152 122 124 134 119 79 45 63 279 161 224 242 247 219 178 198 234 240 255 268 262 248 238 224 197 181 175 167 164 168 171 169
162 161 161 165 153 147 165 161 157 161 157 151 142 121 125 158 199 211 190 140 167 186 172 159 170 172 164 173 185 172 169 192 202 200 191 175 176 186 195 198 171 151 162 161 154 150 146 311 189 145 179 180 161 165 161 172 172 152 153 156 149 143 138 194 218 243 254 247 248 205 178 235 270 242 237 248 250 240 235 238 210 185 183 179 176 177 173 175
161 156 152 158 150 146 158 159 165 167 149 127 122 140 161 188 198 183 179 239 237 69 212 173 163 163 165 178 182 163 165 192 185 195 200 183 185 193 201 218 198 126 116 152 157 161 161 197 189 171 183 183 175 177 161 141 151 162 149 142 156 160 166 190 191 198 227 247 271 240 199 200 206 253 234 237 255 260 229 241 232 208 199 174 156 157 185 228
156 148 142 140 137 143 155 158 170 165 145 112 116 156 175 197 201 173 179 238 224 138 267 191 164 161 172 184 178 168 172 183 180 192 203 189 194 197 193 203 205 178 138 157 180 171 166 186 193 178 171 173 174 167 128 118 123 219 122 129 184 183 150 152 180 178 163 146 242 213 232 213 202 280 280 257 276 284 259 253 222 204 199 131 137 196 222 241
148 141 136 126 124 141 154 159 163 155 145 127 148 170 197 198 198 175 173 197 195 155 154 188 174 166 175 179 172 177 175 143 170 185 210 200 201 197 192 195 197 194 172 163 155 171 172 189 189 157 50 180 173 156 156 157 157 175 157 169 193 154 117 110 217 160 96 180 236 191 244 291 318 285 272 250 258 266 260 257 218 208 196 141 182 229 234 232
140 137 133 119 124 141 151 155 153 147 143 148 167 179 210 211 209 127 165 190 182 133 132 184 186 170 168 166 173 177 163 131 168 178 190 195 208 201 193 196 196 199 201 173 153 194 164 125 246 166 121 188 156 129 155 182 136 140 177 181 143 79 84 106 142 5 58 228 261 210 227 271 305 271 267 233 239 250 248 234 224 230 211 175 204 228 223 219
132 128 120 125 134 138 147 151 146 138 134 170 180 187 183 216 266 172 185 200 158 94 124 191 192 186 173 167 180 174 165 165 172 174 178 169 231 219 193 193 195 201 219 187 158 203 152 111 313 239 147 150 104 121 153 289 323 143 168 171 143 139 209 157 161 182 179 228 272 268 245 234 217 235 248 209 221 232 237 222 214 220 201 185 207 220 219 219
126 117 107 146 142 137 147 150 138 124 130 169 185 205 189 207 254 258 256 227 133 111 161 184 159 234 191 167 172 171 171 177 169 170 188 169 188 236 197 194 194 197 213 194 156 184 164 134 198 264 148 137 127 154 179 221 323 76 137 168 164 151 177 176 171 156 160 213 260 291 301 243 224 214 201 211 214 210 214 209 205 206 192 186 197 201 205 207
125 107 125 159 150 141 144 141 120 111 157 182 188 198 195 205 249 258 304 69 69 144 177 182 159 172 256 179 177 174 177 183 173 176 195 167 161 227 209 205 195 191 205 214 166 169 159 142 158 156 45 137 179 203 188 185 180 156 168 182 180 159 136 166 182 133 131 168 216 257 272 256 246 206 199 213 214 204 202 198 199 200 186 189 195 190 193 198
124 100 143 164 154 144 137 125 98 144 155 208 192 162 203 188 226 256 237 101 75 316 96 142 161 173 177 157 257 208 173 180 176 177 188 172 175 211 209 201 188 184 195 211 206 179 162 155 154 150 172 186 195 204 192 192 189 178 182 184 180 174 131 147 215 204 149 175 176 194 254 263 249 207 206 214 212 204 199 189 189 194 190 193 197 193 192 192
108 105 162 166 157 147 137 122 156 152 144 204 174 152 217 180 165 248 239 96 65 325 20 35 114 174 165 153 185 207 151 176 176 178 193 197 200 207 193 190 188 185 187 192 207 197 115 115 141 152 186 195 198 199 83 183 176 157 187 176 168 171 142 165 211 208 191 211 151 129 272 275 256 229 220 218 210 202 195 182 180 192 192 190 193 196 200 202
93 106 151 163 160 150 139 141 146 150 230 187 129 97 228 81 336 270 355 67 43 353 2 335 8 149 141 130 153 157 154 177 172 182 195 201 210 213 181 182 184 184 188 190 194 188 65 109 141 117 91 1 348 344 25 63 127 123 198 170 164 191 191 182 196 175 181 210 181 183 261 266 272 279 237 209 198 188 190 182 176 185 191 188 193 194 198 209
107 82 134 165 169 161 150 166 162 183 212 143 104 147 189 278 213 207 124 134 163 105 58 275 292 222 217 122 144 176 188 193 10 218 202 198 219 210 178 185 183 177 193 196 185 191 188 161 149 126 132 107 335 257 30 3 186 183 199 191 185 196 194 180 124 123 191 215 182 189 243 250 260 322 38 103 136 157 191 196 178 176 185 190 194 196 198 205
122 68 50 166 176 175 181 183 164 179 184 129 126 171 156 268 226 205 183 170 183 163 165 241 229 197 288 100 115 168 201 210 315 212 214 300 279 224 178 185 183 181 198 206 190 202 223 186 162 159 173 178 190 198 188 185 191 184 188 192 196 197 192 190 182 164 223 225 165 186 245 247 224 244 40 73 125 154 197 219 196 186 190 188 190 197 199 201
132 105 116 143 173 235 323 335 143 162 163 141 155 175 158 198 257 245 245 272 283 157 182 244 212 159 289 26 92 173 215 236 301 199 201 200 236 273 189 179 189 197 197 190 152 76 31 236 199 189 194 193 195 197 174 154 153 156 178 191 198 194 186 188 190 203 215 195 159 218 236 239 228 199 185 192 173 180 198 204 201 198 195 194 195 197 196 199
115 133 165 147 113 157 282 350 141 153 160 162 171 168 173 196 214 205 213 233 269 148 203 257 177 150 200 185 168 232 198 228 265 210 197 191 191 259 277 184 196 204 192 171 151 123 85 266 231 221 224 217 166 150 149 153 171 182 184 188 190 181 179 189 206 217 205 155 219 233 228 237 241 200 180 208 197 194 204 199 196 193 191 197 197 194 199 208
122 136 180 156 124 165 184 192 174 163 163 172 175 159 177 194 191 178 198 229 241 181 146 272 217 191 200 180 183 224 183 190 238 210 187 186 174 166 306 244 211 204 187 165 165 146 127 220 227 232 249 268 79 146 163 171 188 193 187 187 189 184 184 193 209 218 202 176 230 236 222 232 243 212 190 211 201 199 209 203 197 193 190 189 186 192 203 211
130 93 160 146 111 168 177 172 165 165 170 177 179 163 177 192 191 187 175 166 235 216 165 210 227 208 210 192 179 207 190 184 228 219 174 174 174 158 178 253 249 210 179 176 191 159 138 198 196 209 242 258 260 180 174 178 192 200 196 195 194 190 192 198 209 217 208 203 234 241 233 238 240 209 198 212 204 208 215 198 185 194 197 193 191 201 208 210
144 136 156 137 93 152 162 146 146 170 187 186 194 190 185 191 191 194 188 158 171 205 188 207 228 217 210 204 196 214 208 196 227 225 168 159 186 183 185 203 209 160 180 190 194 177 187 189 154 170 229 237 237 236 201 186 188 196 199 200 197 195 200 208 215 217 209 216 234 241 246 253 242 193 199 216 199 198 206 197 202 208 207 201 201 209 211 212
117 129 139 135 132 145 147 146 155 177 194 187 197 197 192 203 197 189 197 187 180 185 186 200 218 223 206 201 210 226 225 214 233 236 189 174 194 194 197 198 154 137 190 201 174 168 195 192 133 148 226 225 204 215 216 200 196 201 201 197 194 198 204 209 216 215 203 213 230 235 242 252 235 172 189 211 193 195 202 204 210 216 212 206 207 212 213 214
100 69 104 120 140 146 146 154 163 180 196 197 202 196 191 206 197 181 195 212 201 204 199 198 207 212 201 203 214 224 225 220 231 240 218 206 217 202 203 202 164 155 178 195 192 178 181 185 156 157 205 228 200 194 200 197 200 208 202 194 194 202 206 209 216 218 206 207 220 222 228 234 193 156 186 202 203 209 210 207 208 211 212 211 210 211 212 215